Regional Weather Roundup
Issued by NWS Charleston, SC

Current Version | Previous Version | Graphics & Text | Print | Product List | Glossary On
Versions: 1 2 3 4 5 6 7 8 9 10 11 12 13 14 15 16 17 18 19 20 21 22 23 24 25 26 27 28 29 30 31 32 33 34 35 36 37 38 39 40 41 42 43 44 45 46 47 48 49 50
000
ASUS42 KCHS 280325
RWRCHS

REGIONAL WEATHER ROUNDUP
NATIONAL WEATHER SERVICE CHARLESTON SC
1100 PM EDT SUN JUL 27 2014

NOTE: "FAIR" INDICATES FEW OR NO CLOUDS BELOW 12,000 FEET WITH NO
SIGNIFICANT WEATHER AND/OR OBSTRUCTIONS TO VISIBILITY.

NOT ALL STATIONS ARE QUALITY CONTROLLED BY THE NATIONAL
WEATHER SERVICE. USE DATA WITH CAUTION...ESPECIALLY
DEWPOINT OBSERVATIONS.

SCZ027-030-031-034>040-042>050-280400-
...SOUTH CAROLINA...

CITY           SKY/WX    TMP DP  RH WIND       PRES   REMARKS
N CHARLESTON   PTCLDY    84  78  82 SW7       29.92S HX  95
WATERFRONT PRK   N/A     88 N/A N/A SW8         N/A
FORT JOHNSON   NOT AVBL
MOUNT PLEASANT FAIR      84  81  89 SW9       29.90F HAZE    HX  98
JOHNS ISLAND   CLEAR     86  79  79 SW6       29.92F HX  99
PINOPOLIS        N/A     88  75  66 SW6       29.83R HX  97
MONCKS CORNER    N/A     84  77  79 SW5       29.90F HX  94
SUMMERVILLE    NOT AVBL
BEAUFORT MCAS  PTCLDY    84  74  71 W6        29.93F HX  91
BEAUFORT ARPT  FAIR      86  75  70 SW5       29.91F HX  95
HILTON HEAD IS CLEAR     82  75  78 S6        29.94F
GEORGETOWN     NOT AVBL
WALTERBORO     MOCLDY    82  73  74 SW5       29.92F
ORANGEBURG     CLOUDY    82  72  71 SW7       29.90F
BARNWELL       FAIR      82  73  74 SW6       29.91F
AIKEN          FAIR      84  73  70 SW8       29.95S HX  91
MANNING        FAIR      86  73  66 SW5       29.89F HX  93
KINGSTREE      NOT AVBL
COLUMBIA       CLOUDY    87  71  58 SW6       29.89S HX  93
SUMTER         CLOUDY    84  74  70 SW12      29.87F HX  91
FLORENCE       CLOUDY    85  74  69 SW8       29.86F HX  92
MYRTLE BEACH   MOCLDY    84  75  74 SW12      29.87F HX  92
N MYRTLE BEACH MOCLDY    84  80  88 SW16      29.87F HX  97

$$

GAZ063-065-086>088-099>101-113>116-118-119-134-136>141-150-280400-
...GEORGIA...

CITY           SKY/WX    TMP DP  RH WIND       PRES   REMARKS
SAVANNAH ARPT  PTCLDY    86  72  62 S7        29.95F HX  92
HUNTER AAF     PTCLDY    86  75  71 SW7       29.94S HX  94
FORT STEWART   PTCLDY    84  72  67 S5        29.95F
STATESBORO     NOT AVBL
SYLVANIA       MOCLDY    83  76  79 SW3       29.93F HX  92
CLAXTON        FAIR      79  79 100 CALM      29.95F
THOMSON        MOCLDY    85  78  78 SW6       29.96S HX  97
AUGUSTA-BUSH   CLOUDY    83  73  72 SW7       29.90F
AUGUSTA-DANIEL CLOUDY    86  73  65 SW6       29.92F HX  93
SWAINSBORO     FAIR      88  77  70 W5        29.95S HX 100
VIDALIA          N/A     82  73  74 SW5       29.96F
ALMA           CLEAR     83  71  67 S6        29.99S
WAYCROSS       CLEAR     86  78  76 SW7       30.00S HX  97
JESUP          NOT AVBL
BRUNSWICK      CLEAR     86  72  62 SW8       29.99F HX  92
SAINT SIMONS   CLEAR     86  74  67 SW10      29.99R HX  94

$$

SCZ027-028-034-036>038-045-046-048>050-GAZ119-141-280400-
...LAKE AND SUPPLEMENTAL COASTAL OBSERVATIONS...

STATION/POSITION TIME  TEMP    WIND        PRES    WAVE   SWELL
                       AIR SEA DIR/SP/G            HT/PER HT/PER/DIR
                 (UTC) (F)     (DEG/KT/KT) (MB)    (FT/S) (FT/S/D)
UPR LAKE MARION  NOT AVBL
WINYAH BAY       0300   84     220/ 10     1012.0S
LAKE MURRAY      0300   87     230/ 12/ 13 1011.2S
ACE BASIN NERRS  0300   83        CALM     1014.0S
FORT PULASKI     0300   86     210/  5/  8 1014.5S
SAPELO ISLAND    0300   86     220/  8     1016.0S

$$

ANZ835-935-AMZ111-154-330-350-352-354-374-450-454-472-280400-
...C-MAN AND BUOY OBSERVATIONS...

STATION/POSITION TIME  TEMP    WIND        PRES    WAVE   SWELL
                       AIR SEA DIR/SP/G            HT/PER HT/PER/DIR
                 (UTC) (F)     (DEG/KT/KT) (MB)    (FT/S) (FT/S/D)
FOLLY BEACH CMAN 0300   85     220/ 16/ 19 1013.6F
BUOY 41004       0300   85 84  220/ 19/ 23 1012.6R   4/ 5   2/ 9
BUOY 41008       0200   85 85  190/ 17/ 19 1014.5R   3/ 4   2/ 80/11
5E ST. MARYS GA  0300      85                N/A     2/11
FRYING PAN BUOY  NOT AVBL
BUOY 41025       0300          VRB 16/ 19  1010.4R   3/ 4   2/130/ 8
CAPE LOOKOUT NC  0300   82     220/ 11/ 19 1010.9F
BUOY 41002       NOT AVBL
BUOY 41010       0300   84 84  200/ 12/ 14 1017.7F   3/10   2/140/10
BUOY 41012       NOT AVBL
ST AUGUSTINE FL  0300   83     240/  8/ 11 1017.6R
CAPERS NEARSHORE 0200   85     250/ 19/ 23   N/A
FRIPP NEARSHORE  NOT AVBL


$$


USA.gov is the U.S. government's official web portal to all federal, state and local government web resources and services.